Zurück zum Katalog

STARLINK-31696

AktivKommunikationVLEO
NORAD 59435·PAYLOAD·🇺🇸 United States

Gestartet Apr 7, 2024 von Vandenberg Space Force Base

Loading…

Nächste Überflüge (nächste 24 Stunden)

TLE

AktuellSource: CelesTrak SupGP

Epoche: Sep 14, 2026, 21:03 UTC

1 59435C 24065Q   26257.87756944 -.00047019  00000+0 -13893-2 0  2570
2 59435  53.1563 119.8482 0001289  86.3790  77.8550 15.34411858    10

Verfolge STARLINK-31696 in Echtzeit mit AllMySat

Download on the App Store